timestamp,surface_pressure_avg,surface_temp_avg,battery_voltage,lat,long
2020-02-13 00:09:01+00:00,271.9781,0.46,12.49,47.84626,-54.09684
2020-02-13 00:19:01+00:00,278.7513,0.47,12.49,47.84626,-54.09684
2020-02-13 00:29:01+00:00,286.3231,0.48,12.49,47.84626,-54.09684
2020-02-13 00:39:01+00:00,290.9214,0.49,12.49,47.84626,-54.09684
2020-02-13 00:49:01+00:00,297.7613,0.49,12.49,47.84626,-54.09684
2020-02-13 00:59:01+00:00,308.7664,0.5,12.49,47.84626,-54.09684
2020-02-13 01:09:01+00:00,325.14799999999997,0.5,12.49,47.84626,-54.09684
2020-02-13 01:19:01+00:00,332.4763,0.5,12.41,47.84626,-54.09684
2020-02-13 01:29:01+00:00,333.9713,0.5,12.41,47.84626,-54.09684
2020-02-13 01:39:01+00:00,334.7847,0.5,12.41,47.84626,-54.09684
2020-02-13 01:49:01+00:00,338.7646,0.5,12.41,47.84626,-54.09684
2020-02-13 01:59:01+00:00,345.3097,0.5,12.41,47.84626,-54.09684
2020-02-13 02:09:01+00:00,345.6713,0.5,12.41,47.84626,-54.09684
2020-02-13 02:19:01+00:00,347.5413,0.5,12.41,47.84626,-54.09684
2020-02-13 02:29:01+00:00,348.8947,0.5,12.41,47.84626,-54.09684
2020-02-13 02:39:01+00:00,351.0046,0.5,12.41,47.84626,-54.09684
2020-02-13 02:49:01+00:00,349.148,0.5,12.41,47.84626,-54.09684
2020-02-13 02:59:01+00:00,347.968,0.52,12.41,47.84626,-54.09684
2020-02-13 03:09:01+00:00,344.838,0.55,12.41,47.84626,-54.09684
2020-02-13 03:19:01+00:00,340.4313,0.56,12.41,47.84626,-54.09684
2020-02-13 03:29:01+00:00,337.7013,0.55,12.41,47.84626,-54.09684
2020-02-13 03:39:01+00:00,332.5079,0.53,12.41,47.84626,-54.09684
2020-02-13 03:49:01+00:00,330.168,0.56,12.41,47.84626,-54.09684
2020-02-13 03:59:01+00:00,324.903,0.57,12.41,47.84626,-54.09684
2020-02-13 04:09:01+00:00,312.8063,0.54,12.41,47.84626,-54.09684
2020-02-13 04:19:01+00:00,306.7163,0.5,12.41,47.84626,-54.09684
2020-02-13 04:29:01+00:00,317.8747,0.5,12.41,47.84626,-54.09684
2020-02-13 04:39:01+00:00,327.918,0.5,12.41,47.84626,-54.09684
2020-02-13 04:49:01+00:00,319.7313,0.5,12.41,47.84626,-54.09684
2020-02-13 04:59:01+00:00,312.6747,0.5,12.41,47.84626,-54.09684
2020-02-13 05:09:01+00:00,321.0797,0.5,12.41,47.84626,-54.09684
2020-02-13 05:19:01+00:00,316.823,0.5,12.41,47.84626,-54.09684
2020-02-13 05:29:01+00:00,298.938,0.5,12.41,47.84626,-54.09684
2020-02-13 05:39:01+00:00,295.743,0.52,12.41,47.84626,-54.09684
2020-02-13 05:49:01+00:00,300.5696,0.54,12.41,47.84626,-54.09684
2020-02-13 05:59:01+00:00,290.9064,0.56,12.41,47.84626,-54.09684
2020-02-13 06:09:01+00:00,273.0681,0.56,12.41,47.84626,-54.09684
2020-02-13 06:19:01+00:00,277.5381,0.57,12.41,47.84626,-54.09684
2020-02-13 06:29:01+00:00,274.0698,0.57,12.41,47.84626,-54.09684
2020-02-13 06:39:01+00:00,252.5564,0.57,12.41,47.84626,-54.09684
2020-02-13 06:49:01+00:00,241.8831,0.57,12.41,47.84626,-54.09684
2020-02-13 06:59:01+00:00,242.0898,0.56,12.41,47.84626,-54.09684
2020-02-13 07:09:01+00:00,227.3997,0.57,12.41,47.84626,-54.09684
2020-02-13 07:19:01+00:00,210.7714,0.54,12.41,47.84626,-54.09684
2020-02-13 07:29:01+00:00,213.8781,0.52,12.41,47.84626,-54.09684
2020-02-13 07:39:01+00:00,212.9748,0.52,12.41,47.84626,-54.09684
2020-02-13 07:49:01+00:00,197.3365,0.57,12.41,47.84626,-54.09684
2020-02-13 07:59:01+00:00,191.6264,0.57,12.41,47.84626,-54.09684
2020-02-13 08:09:01+00:00,193.2365,0.59,12.41,47.84626,-54.09684
2020-02-13 08:19:01+00:00,186.6299,0.59,12.41,47.84626,-54.09684
2020-02-13 08:29:01+00:00,182.1748,0.59,12.41,47.84626,-54.09684
2020-02-13 08:39:01+00:00,185.4698,0.6,12.41,47.84626,-54.09684
2020-02-13 08:49:01+00:00,183.8348,0.6,12.41,47.84626,-54.09684
2020-02-13 08:59:01+00:00,179.0414,0.6,12.41,47.84626,-54.09684
2020-02-13 09:09:01+00:00,179.6048,0.59,12.41,47.84626,-54.09684
2020-02-13 09:19:01+00:00,192.9698,0.57,12.41,47.84626,-54.09684
2020-02-13 09:29:01+00:00,199.9298,0.6,12.41,47.84626,-54.09684
2020-02-13 09:39:01+00:00,194.6614,0.6,12.41,47.84626,-54.09684
2020-02-13 09:49:01+00:00,202.5064,0.6,12.41,47.84626,-54.09684
2020-02-13 09:59:01+00:00,212.2515,0.6,12.41,47.84626,-54.09684
2020-02-13 10:09:01+00:00,212.9814,0.62,12.41,47.84626,-54.09684
2020-02-13 10:19:01+00:00,222.4981,0.65,12.41,47.84626,-54.09684
2020-02-13 10:29:01+00:00,239.9164,0.6,12.41,47.84626,-54.09684
2020-02-13 10:39:01+00:00,247.5914,0.6,12.41,47.84626,-54.09684
2020-02-13 10:49:01+00:00,248.3881,0.5,12.41,47.84626,-54.09684
2020-02-13 10:59:01+00:00,254.1231,0.5,12.41,47.84626,-54.09684
2020-02-13 11:09:01+00:00,264.1098,0.5,12.41,47.84626,-54.09684
2020-02-13 11:19:01+00:00,269.5548,0.5,12.41,47.84626,-54.09684
2020-02-13 11:29:01+00:00,271.7981,0.5,12.41,47.84626,-54.09684
2020-02-13 11:39:01+00:00,275.0131,0.5,12.41,47.84626,-54.09684
2020-02-13 11:49:01+00:00,280.7413,0.59,12.41,47.84626,-54.09684
2020-02-13 11:59:01+00:00,290.9914,0.66,12.41,47.84626,-54.09684
2020-02-13 12:09:01+00:00,301.0413,0.68,12.41,47.84626,-54.09684
2020-02-13 12:19:01+00:00,308.098,0.69,12.49,47.84626,-54.09684
2020-02-13 12:29:01+00:00,312.538,0.7,12.49,47.84626,-54.09684
2020-02-13 12:39:01+00:00,322.3747,0.7,12.49,47.84626,-54.09684
2020-02-13 12:49:01+00:00,335.7797,0.7,12.49,47.84626,-54.09684
2020-02-13 12:59:01+00:00,344.6897,0.72,12.49,47.84626,-54.09684
2020-02-13 13:09:01+00:00,346.19300000000015,0.72,12.49,47.84626,-54.09684
2020-02-13 13:19:01+00:00,347.9947,0.7,12.57,47.84626,-54.09684
2020-02-13 13:29:01+00:00,356.4645,0.7,12.57,47.84626,-54.09684
2020-02-13 13:39:01+00:00,357.6479,0.7,12.57,47.84626,-54.09684
2020-02-13 13:49:01+00:00,359.0113,0.7,12.57,47.84626,-54.09684
2020-02-13 13:59:01+00:00,364.2863,0.7,12.57,47.84626,-54.09684
2020-02-13 14:09:01+00:00,373.7346,0.7,12.57,47.84626,-54.09684
2020-02-13 14:19:01+00:00,380.1363,0.7,12.81,47.84626,-54.09684
2020-02-13 14:29:01+00:00,383.4128,0.7,12.81,47.84626,-54.09684
2020-02-13 14:39:01+00:00,386.8629,0.71,12.81,47.84626,-54.09684
2020-02-13 14:49:01+00:00,391.9196,0.72,12.81,47.84626,-54.09684
2020-02-13 14:59:01+00:00,392.81800000000004,0.73,12.81,47.84626,-54.09684
2020-02-13 15:09:01+00:00,389.1628,0.74,12.81,47.84626,-54.09684
2020-02-13 15:19:01+00:00,388.1995,0.77,12.89,47.84626,-54.09684
2020-02-13 15:29:01+00:00,388.943,0.79,12.89,47.84626,-54.09684
2020-02-13 15:39:01+00:00,383.9046,0.8,12.89,47.84626,-54.09684
2020-02-13 15:49:01+00:00,377.8946,0.8,12.89,47.84626,-54.09684
2020-02-13 15:59:01+00:00,377.8513,0.8,12.89,47.84626,-54.09684
2020-02-13 16:09:01+00:00,380.9012,0.8,12.89,47.84626,-54.09684
2020-02-13 16:19:01+00:00,374.5029,0.8,13.05,47.84626,-54.09684
2020-02-13 16:29:01+00:00,367.4913,0.8,13.05,47.84626,-54.09684
2020-02-13 16:39:01+00:00,366.2929,0.8,13.05,47.84626,-54.09684
2020-02-13 16:49:01+00:00,365.3729,0.8,13.05,47.84626,-54.09684
2020-02-13 16:59:01+00:00,356.4263,0.8,13.05,47.84626,-54.09684
2020-02-13 17:09:01+00:00,346.4763,0.8,13.05,47.84626,-54.09684
2020-02-13 17:19:01+00:00,340.7947,0.8,12.97,47.84626,-54.09684
2020-02-13 17:29:01+00:00,326.9813,0.8,12.97,47.84626,-54.09684
2020-02-13 17:39:01+00:00,311.648,0.8,12.97,47.84626,-54.09684
2020-02-13 17:49:01+00:00,299.428,0.8,12.97,47.84626,-54.09684
2020-02-13 17:59:01+00:00,289.6997,0.8,12.97,47.84626,-54.09684
2020-02-13 18:09:01+00:00,279.2014,0.8,12.97,47.84626,-54.09684
2020-02-13 18:19:01+00:00,269.9764,0.8,12.97,47.84626,-54.09684
2020-02-13 18:29:01+00:00,258.4764,0.8,12.97,47.84626,-54.09684
2020-02-13 18:39:01+00:00,242.1397,0.79,12.97,47.84626,-54.09684
2020-02-13 18:49:01+00:00,229.1031,0.77,12.97,47.84626,-54.09684
2020-02-13 18:59:01+00:00,218.6914,0.74,12.97,47.84626,-54.09684
2020-02-13 19:09:01+00:00,203.6065,0.72,12.97,47.84626,-54.09684
2020-02-13 19:19:01+00:00,188.3881,0.7,13.05,47.84626,-54.09684
2020-02-13 19:29:01+00:00,187.2914,0.7,13.05,47.84626,-54.09684
2020-02-13 19:39:01+00:00,183.3948,0.7,13.05,47.84626,-54.09684
2020-02-13 19:49:01+00:00,167.0182,0.7,13.05,47.84626,-54.09684
2020-02-13 19:59:01+00:00,158.0282,0.7,13.05,47.84626,-54.09684
2020-02-13 20:09:01+00:00,159.6282,0.7,13.05,47.84626,-54.09684
2020-02-13 20:19:01+00:00,155.6781,0.7,12.89,47.84626,-54.09684
2020-02-13 20:29:01+00:00,149.7582,0.7,12.89,47.84626,-54.09684
2020-02-13 20:39:01+00:00,152.1865,0.7,12.89,47.84626,-54.09684
2020-02-13 20:49:01+00:00,152.7249,0.7,12.89,47.84626,-54.09684
2020-02-13 20:59:01+00:00,149.8748,0.7,12.89,47.84626,-54.09684
2020-02-13 21:09:01+00:00,155.1532,0.7,12.89,47.84626,-54.09684
2020-02-13 21:19:01+00:00,166.1765,0.7,12.73,47.84626,-54.09684
2020-02-13 21:29:01+00:00,172.2698,0.7,12.73,47.84626,-54.09684
2020-02-13 21:39:01+00:00,175.9932,0.7,12.73,47.84626,-54.09684
2020-02-13 21:49:01+00:00,182.4582,0.7,12.73,47.84626,-54.09684
2020-02-13 21:59:01+00:00,184.7748,0.7,12.73,47.84626,-54.09684
2020-02-13 22:09:01+00:00,185.2931,0.7,12.73,47.84626,-54.09684
2020-02-13 22:19:01+00:00,195.6231,0.7,12.65,47.84626,-54.09684
2020-02-13 22:29:01+00:00,204.8564,0.7,12.65,47.84626,-54.09684
2020-02-13 22:39:01+00:00,202.0715,0.7,12.65,47.84626,-54.09684
2020-02-13 22:49:01+00:00,209.9314,0.69,12.65,47.84626,-54.09684
2020-02-13 22:59:01+00:00,229.0747,0.69,12.65,47.84626,-54.09684
2020-02-13 23:09:01+00:00,233.4731,0.68,12.65,47.84626,-54.09684
2020-02-13 23:19:01+00:00,231.3898,0.63,12.57,47.84626,-54.09684
2020-02-13 23:29:01+00:00,236.6731,0.6,12.57,47.84626,-54.09684
2020-02-13 23:39:01+00:00,242.8198,0.6,12.57,47.84626,-54.09684
2020-02-13 23:49:01+00:00,240.8848,0.6,12.57,47.84626,-54.09684
2020-02-13 23:59:01+00:00,239.9315,0.54,12.57,47.84626,-54.09684
